This is the latest recevied weather packets stored in our database for station/object W7MB. If no packets are shown the sender has not sent any weather packets the latest 10 day(s).
| Time | Temp. | Humidity | Pressure | Rain* | Wind** | Luminosity | Snow |
|---|---|---|---|---|---|---|---|
| 1777607283 | 13.33° C | 63% | 1017.6 hPa | 0 mm | - | - | - |
| 1777606923 | 13.33° C | 62% | 1017.6 hPa | 0 mm | - | - | - |
| 1777606564 | 13.89° C | 60% | 1017.5 hPa | 0 mm | - | - | - |
| 1777606204 | 14.44° C | 58% | 1017.4 hPa | 0 mm | - | - | - |
| 1777605843 | 15° C | 55% | 1017.4 hPa | 0 mm | - | - | - |
| 1777605483 | 15° C | 53% | 1017.4 hPa | 0 mm | - | - | - |
| 1777605123 | 15.56° C | 52% | 1017.3 hPa | 0 mm | - | - | - |
| 1777604763 | 16.11° C | 50% | 1017.2 hPa | 0 mm | - | - | - |
| 1777604404 | 16.11° C | 51% | 1017.2 hPa | 0 mm | - | - | - |
| 1777604043 | 16.67° C | 51% | 1017.1 hPa | 0 mm | - | - | - |
| 1777603683 | 17.22° C | 49% | 1017.1 hPa | 0 mm | - | - | - |
| 1777603323 | 17.78° C | 47% | 1017.1 hPa | 0 mm | - | - | - |
| 1777602963 | 18.33° C | 45% | 1017.1 hPa | 0 mm | - | - | - |
| 1777602603 | 18.89° C | 42% | 1017 hPa | 0 mm | - | - | - |
| 1777602243 | 19.44° C | 41% | 1017.1 hPa | 0 mm | - | - | - |
| 1777601883 | 20° C | 38% | 1017.1 hPa | 0 mm | - | - | - |
| 1777601523 | 20.56° C | 34% | 1017.1 hPa | 0 mm | - | - | - |
| 1777601163 | 21.11° C | 36% | 1017.1 hPa | 0 mm | - | - | - |
| 1777600804 | 21.67° C | 34% | 1017.2 hPa | 0 mm | - | - | - |
| 1777600443 | 21.67° C | 32% | 1017.2 hPa | 0 mm | - | - | - |
| 1777600083 | 21.67° C | 32% | 1017.3 hPa | 0 mm | - | - | - |
| 1777599723 | 21.67° C | 30% | 1017.3 hPa | 0 mm | - | - | - |
| 1777599363 | 21.67° C | 33% | 1017.4 hPa | 0 mm | - | - | - |
| 1777599003 | 21.67° C | 31% | 1017.4 hPa | 0 mm | - | - | - |
| 1777598643 | 22.22° C | 30% | 1017.4 hPa | 0 mm | - | - | - |
* Rain latest hour (hover to see other rain measurements)
** Current wind speed in m/s (hover to see current wind gust speed)